This demonstration page uses our WeatherBlox Daily Observations layout. Learn more.

Hourly Observations for February 10, 2017

Temp ( °F °C ) Dew Point ( °F °C ) Humidity (%) Winds ( mph kmh ) Pressure ( in mb ) Visibility ( mi km ) Precip ( " mm )
12:15 am 00:15 Clear 34 1.2 21 -6 59 59 SSW 12 19 29.85 1011 10 16.0934 0 0
12:35 am 00:35 Clear 34 1.3 22 -5.8 60 60 SSW 10 17 29.85 1011 10 16.0934 0 0
12:55 am 00:55 Clear 35 1.5 22 -5.7 59 59 SSW 10 17 29.85 1011 10 16.0934 0 0
1:15 am 01:15 Clear 35 1.5 22 -5.7 59 59 SSW 9 15 29.85 1011 10 16.0934 0 0
1:35 am 01:35 Clear 34 1.1 22 -5.7 61 61 SSW 8 13 29.85 1011 10 16.0934 0 0
1:55 am 01:55 Clear 34 1.3 22 -5.5 61 61 SSW 9 15 29.85 1011 10 16.0934 0 0
2:15 am 02:15 Clear 35 1.5 22 -5.5 60 60 SSW 8 13 29.83 1010 10 16.0934 0 0
2:35 am 02:35 Clear 34 1.3 22 -5.5 61 61 SSW 8 13 29.83 1010 10 16.0934 0 0
2:55 am 02:55 Clear 34 1.1 22 -5.3 63 63 SSW 9 15 29.83 1010 10 16.0934 0 0
3:15 am 03:15 Clear 34 1 22 -5.3 63 63 SSW 7 11 29.83 1010 10 16.0934 0 0
3:35 am 03:35 Clear 34 1 23 -5 65 65 SSW 10 17 29.8 1009 10 16.0934 0 0
3:55 am 03:55 Clear 35 1.8 24 -4.7 62 62 SSW 7 11 29.8 1009 10 16.0934 0 0
4:15 am 04:15 Clear 37 2.5 25 -4.1 62 62 SW 6 9 29.8 1009 10 16.0934 0 0
4:35 am 04:35 Clear 38 3.5 26 -3.5 61 61 SW 3 6 29.77 1008 10 16.0934 0 0
4:55 am 04:55 Clear 38 3.5 26 -3.5 61 61 SSW 5 7 29.74 1007 10 16.0934 0 0
5:15 am 05:15 Clear 38 3.3 26 -3.6 61 61 SW 3 6 29.74 1007 10 16.0934 0 0
5:35 am 05:35 Clear 37 2.6 25 -3.7 64 64 Calm 29.8 1009 10 16.0934 0 0
5:55 am 05:55 Clear 37 2.6 25 -3.7 64 64 WSW 5 7 29.8 1009 10 16.0934 0 0
6:15 am 06:15 Clear 38 3.2 26 -3.6 61 61 S 5 7 29.74 1007 10 16.0934 0 0
6:35 am 06:35 Clear 36 2.3 26 -3.5 66 66 WSW 5 7 29.77 1008 10 16.0934 0 0
6:55 am 06:55 Clear 35 1.4 24 -4.2 67 67 WSW 5 7 29.8 1009 10 16.0934 0 0
7:15 am 07:15 Clear 34 1 24 -4.2 69 69 SW 6 9 29.77 1008 10 16.0934 0 0
7:35 am 07:35 Clear 34 0.9 25 -4 70 70 W 5 7 29.8 1009 10 16.0934 0 0
7:55 am 07:55 Sunny 36 2 26 -3.6 67 67 Calm 29.8 1009 10 16.0934 0 0
8:15 am 08:15 Sunny 36 2.1 26 -3.3 68 68 WSW 3 6 29.8 1009 10 16.0934 0 0
8:35 am 08:35 Sunny 37 2.7 27 -2.7 68 68 SW 8 13 29.8 1009 10 16.0934 0 0
8:55 am 08:55 Sunny 38 3.5 27 -2.6 65 65 SW 3 6 29.77 1008 10 16.0934 0 0
9:15 am 09:15 Sunny 39 3.9 27 -2.6 63 63 WSW 5 7 29.77 1008 10 16.0934 0 0
9:35 am 09:35 Sunny 42 5.4 28 -2.2 58 58 SW 3 6 29.77 1008 10 16.0934 0 0
9:55 am 09:55 Sunny 41 5.2 28 -2.4 58 58 SW 6 9 29.77 1008 10 16.0934 0 0
10:15 am 10:15 Sunny 44 6.5 28 -2 55 55 WSW 6 9 29.77 1008 10 16.0934 0 0
10:35 am 10:35 Sunny 47 8.4 29 -1.5 50 50 SW 6 9 29.77 1008 10 16.0934 0 0
10:55 am 10:55 Sunny 51 10.3 30 -1.1 45 45 SW 6 9 29.74 1007 10 16.0934 0 0
11:15 am 11:15 Sunny 51 10.6 30 -1 45 45 WSW 6 9 29.74 1007 10 16.0934 0 0
11:35 am 11:35 Sunny 54 12.1 31 -0.7 41 41 SW 8 13 29.74 1007 10 16.0934 0 0
11:55 am 11:55 Sunny 56 13.5 31 -0.5 38 38 SW 10 17 29.74 1007 10 16.0934 0 0
12:15 pm 12:15 Sunny 59 15.2 32 -0.2 35 35 WSW 7 11 29.68 1005 10 16.0934 0 0
12:35 pm 12:35 Sunny 63 17.3 32 0 31 31 SW 9 15 29.65 1004 10 16.0934 0 0
12:55 pm 12:55 Sunny 67 19.5 32 0 27 27 SW 13 20 29.65 1004 10 16.0934 0 0
1:15 pm 13:15 Sunny 68 20 32 -0.1 26 26 SW 8 13 29.65 1004 10 16.0934 0 0
1:35 pm 13:35 Sunny 70 20.9 32 -0.1 25 25 W 7 11 29.62 1003 10 16.0934 0 0
1:55 pm 13:55 Sunny 70 21.1 32 0 25 25 WSW 3 6 29.62 1003 10 16.0934 0 0
2:15 pm 14:15 Sunny 69 20.7 32 0.1 25 25 SW 6 9 29.62 1003 10 16.0934 0 0
2:35 pm 14:35 Sunny 69 20.8 33 0.3 26 26 SW 3 6 29.62 1003 10 16.0934 0 0
2:55 pm 14:55 Sunny 71 21.9 32 0.1 24 24 Calm 29.62 1003 10 16.0934 0 0
3:15 pm 15:15 Sunny 72 22.1 32 0 23 23 SW 3 6 29.62 1003 10 16.0934 0 0
3:35 pm 15:35 Sunny 73 22.6 32 0.1 23 23 Calm 29.62 1003 10 16.0934 0 0
3:55 pm 15:55 Sunny 72 22.3 32 0 23 23 Calm 29.62 1003 10 16.0934 0 0
4:15 pm 16:15 Sunny 73 22.5 32 0.2 23 23 ENE 5 7 29.62 1003 10 16.0934 0 0
4:35 pm 16:35 Sunny 70 21.2 34 0.9 26 26 ENE 3 6 29.62 1003 10 16.0934 0 0
4:55 pm 16:55 Sunny 67 19.7 36 2.2 31 31 ENE 7 11 29.65 1004 10 16.0934 0 0
5:15 pm 17:15 Sunny 67 19.5 35 1.6 30 30 NE 7 11 29.65 1004 10 16.0934 0 0
5:35 pm 17:35 Sunny 62 16.5 35 1.4 36 36 NE 8 13 29.68 1005 10 16.0934 0 0
5:55 pm 17:55 Sunny 58 14.2 34 1 41 41 NE 9 15 29.68 1005 10 16.0934 0 0
6:15 pm 18:15 Clear 54 12 34 1 47 47 ENE 10 17 29.71 1006 10 16.0934 0 0
6:35 pm 18:35 Clear 55 12.7 33 0.4 43 43 E 8 13 29.74 1007 10 16.0934 0 0
6:55 pm 18:55 Clear 53 11.6 32 -0.1 45 45 E 6 9 29.74 1007 10 16.0934 0 0
7:15 pm 19:15 Clear 49 9.4 32 0.2 53 53 ESE 8 13 29.8 1009 10 16.0934 0 0
7:35 pm 19:35 Clear 46 7.8 31 -0.5 56 56 SE 8 13 29.77 1008 10 16.0934 0 0
7:55 pm 19:55 Clear 48 9.1 32 0 53 53 SE 3 6 29.8 1009 10 16.0934 0 0
8:15 pm 20:15 Clear 47 8.1 32 -0.1 57 57 Calm 29.8 1009 10 16.0934 0 0
8:35 pm 20:35 Clear 46 7.6 31 -0.6 56 56 Calm 29.8 1009 10 16.0934 0 0
8:55 pm 20:55 Clear 43 6.1 31 -0.7 62 62 Calm 29.8 1009 10 16.0934 0 0
9:15 pm 21:15 Clear 42 5.3 30 -1 64 64 NE 3 6 29.8 1009 10 16.0934 0 0
9:35 pm 21:35 Clear 44 6.8 32 -0.1 62 62 N 3 6 29.8 1009 10 16.0934 0 0
9:55 pm 21:55 Clear 45 7 32 0 61 61 N 3 6 29.77 1008 10 16.0934 0 0
10:15 pm 22:15 Clear 43 6.1 31 -0.3 64 64 NNE 3 6 29.8 1009 10 16.0934 0 0
10:35 pm 22:35 Clear 44 6.6 32 0 63 63 NNE 6 9 29.8 1009 10 16.0934 0 0
10:55 pm 22:55 Clear 42 5.7 32 -0.1 67 67 NE 5 7 29.8 1009 10 16.0934 0 0
11:15 pm 23:15 Clear 44 6.7 32 0.2 64 64 NNE 8 13 29.8 1009 10 16.0934 0 0
11:35 pm 23:35 Clear 44 6.5 33 0.4 65 65 NE 8 13 29.83 1010 10 16.0934 0 0
11:55 pm 23:55 Clear 44 6.4 33 0.3 65 65 NNE 8 13 29.83 1010 10 16.0934 0 0

Powered by AerisWeather